Flag for Mauritania Weather past 2 weeks in Nouakchott, Mauritania

Now
82 °F

Passing clouds.


Feels Like: 91 °F
Forecast: 82 / 93 °F
Wind: 10 mph from Northwest

Location: Nouakchott Airport

Current Time: Aug 31, 2014 at 1:09:52 AM

Latest Report: Aug 31, 2014 at 12:30 AM


Visibility: 4 mi

Pressure: 29.92 "Hg

Humidity: 84%

Dew point: 77 °F

Location of NouakchottLocation

Historic Weather in Nouakchott — Graph

°F

Nouakchott temperature yesterday

Maximum temperature yesterday: 90 °F (at 1:00 PM)
Minimum temperature yesterday: 82 °F (at 12:00 AM)
Average temperature yesterday: 85 °F

Past Weeks' High & Low Weather Summary

 TemperatureHumidityPressure
High97 °F (Aug 21, 2:30 PM)100% (Aug 23, 8:00 AM)30.07 "Hg (Aug 23, 8:00 AM)
Low72 °F (Aug 23, 7:30 AM)42% (Aug 21, 2:30 PM)29.74 "Hg (Aug 17, 4:30 PM)
Average83 °F76%29.87 "Hg
* Reported Midnight between Aug 15 and Aug 16 — Midnight between Aug 30 and Aug 31, Nouakchott, Weather by CustomWeather, © 2014

Note: Actual official high and low records may vary slightly from our data, if they occured in-between our weather recording intervals... More about our weather records

Advertising

Nouakchott weather history for previous 24 hours

 ConditionsComfort  
Time TempWeatherWind HumidityBarometerVisibility
12:00 AM
Aug 31
82 °FPassing clouds.8 mph84%29.92 "Hg4 mi
11:30 PM
Aug 30
82 °FPassing clouds.12 mph84%29.89 "Hg4 mi
11:00 PM82 °FPassing clouds.10 mph84%29.89 "Hg4 mi
10:30 PM82 °FPassing clouds.10 mph84%29.89 "Hg4 mi
10:00 PM82 °FPassing clouds.10 mph84%29.89 "Hg4 mi
9:30 PM82 °FPassing clouds.10 mph84%29.89 "Hg4 mi
9:00 PM82 °FPassing clouds.9 mph84%29.89 "Hg4 mi
8:30 PM82 °FPassing clouds.10 mph84%29.89 "Hg4 mi
8:00 PM82 °FClear.10 mph84%29.89 "Hg4 mi
7:30 PM84 °FClear.9 mph79%29.86 "Hg4 mi
7:00 PM84 °FClear.12 mph79%29.86 "Hg4 mi
6:00 PM86 °FClear.13 mph75%29.86 "Hg4 mi
5:30 PM86 °FClear.13 mph75%29.86 "Hg4 mi
5:00 PM88 °FClear.12 mph66%29.86 "Hg4 mi
4:30 PM88 °FClear.10 mph70%29.86 "Hg4 mi
4:00 PM88 °FClear.14 mph66%29.86 "Hg4 mi
3:30 PM90 °FClear.14 mph67%29.86 "Hg4 mi
3:00 PM90 °FPassing clouds.14 mph63%29.86 "Hg4 mi
2:30 PM90 °FPassing clouds.13 mph63%29.86 "Hg4 mi
2:00 PM90 °FPassing clouds.9 mph63%29.89 "Hg4 mi
1:30 PM90 °FPassing clouds.9 mph63%29.89 "Hg4 mi
1:00 PM90 °FPassing clouds.8 mph63%29.92 "Hg4 mi
12:30 PM88 °FPassing clouds.9 mph70%29.92 "Hg4 mi
12:00 PM88 °FPassing clouds.9 mph66%29.92 "Hg4 mi
11:30 AM88 °FScattered clouds.10 mph66%29.92 "Hg4 mi
11:00 AM88 °FScattered clouds.6 mph66%29.95 "Hg4 mi
10:30 AM88 °FScattered clouds.7 mph70%29.95 "Hg4 mi
10:00 AM86 °FScattered clouds.7 mph70%29.95 "Hg4 mi
9:30 AM86 °FScattered clouds.7 mph70%29.95 "Hg4 mi
9:00 AM84 °FScattered clouds.6 mph79%29.95 "Hg4 mi
8:30 AM84 °FClear.6 mph79%29.92 "Hg4 mi
8:00 AM82 °FClear.3 mph84%29.92 "Hg4 mi
7:30 AM82 °FClear.3 mph84%29.89 "Hg4 mi
7:00 AM82 °FClear.2 mph84%29.89 "Hg4 mi
6:30 AM82 °FClear.5 mph84%29.89 "Hg4 mi
6:00 AM82 °FClear.3 mph84%29.89 "Hg4 mi
5:30 AM82 °FClear.3 mph84%29.89 "Hg4 mi
5:00 AM82 °FClear.3 mph84%29.86 "Hg4 mi
4:30 AM82 °FClear.5 mph84%29.86 "Hg4 mi
4:00 AM82 °FClear.7 mph84%29.86 "Hg4 mi
3:30 AM82 °FClear.6 mph84%29.86 "Hg4 mi
3:00 AM82 °FClear.7 mph84%29.86 "Hg4 mi
2:30 AM82 °FClear.8 mph84%29.86 "Hg4 mi
2:00 AM82 °FClear.6 mph84%29.86 "Hg4 mi
1:30 AM82 °FClear.7 mph84%29.86 "Hg4 mi
1:00 AM82 °FClear.7 mph84%29.89 "Hg4 mi
Weather by CustomWeather, © 2014

See weather overviewHow to use our weather pages